Location: Kawakawa
(35.3830°S, 174.0670°E)
Time: 21:02:00
(UTC+13:00)

S-56A Canister/Altair - All Passes

Search period start: 13 December 2019 00:00
Search period end: 23 December 2019 00:00
Orbit: 633 x 2500 km, 38.9° (Epoch: 12 December)

Date Brightness Start Highest point End Pass type
(mag) Time Alt. Az. Time Alt. Az. Time Alt. Az.
13 Dec - 01:02:13 10° W 01:06:39 57° S 01:11:25 10° ESE visible
13 Dec - 03:05:58 10° WSW 03:10:38 79° SSE 03:16:43 10° ENE visible
13 Dec - 05:09:27 10° W 05:14:30 38° NNW 05:21:32 10° NE visible
13 Dec - 07:18:13 10° NW 07:18:50 10° NW 07:19:27 10° NNW daylight
13 Dec - 20:23:50 10° N 20:26:47 13° NNE 20:29:23 10° ENE daylight
13 Dec - 22:25:05 10° NW 22:30:27 54° NNE 22:34:53 10° ESE visible
14 Dec - 00:29:31 10° W 00:34:06 59° S 00:38:40 10° ESE visible
14 Dec - 02:33:31 10° WSW 02:38:03 72° SSE 02:43:38 10° E visible
14 Dec - 04:36:59 10° W 04:41:49 41° NNW 04:48:28 10° NE visible
14 Dec - 06:43:56 10° NW 06:45:59 11° NW 06:48:14 10° NNW daylight
14 Dec - 19:51:39 10° NNE 19:54:05 12° NE 19:56:17 10° NE daylight
14 Dec - 21:52:13 10° NW 21:57:55 47° NNE 22:02:22 10° E visible
14 Dec - 23:56:45 10° W 00:01:32 63° S 00:06:01 10° ESE visible
15 Dec - 02:01:02 10° WSW 02:05:29 66° SSE 02:10:39 10° E visible
15 Dec - 04:04:31 10° W 04:09:12 46° NNW 04:15:28 10° NE visible
15 Dec - 06:10:35 10° WNW 06:13:12 13° NW 06:16:09 10° N daylight
15 Dec - 19:19:45 10° NNE 19:21:21 11° NE 19:22:50 10° NE daylight
15 Dec - 21:19:17 10° NW 21:25:19 42° NNE 21:29:54 10° E visible
15 Dec - 23:23:53 10° W 23:29:00 68° SSW 23:33:27 10° ESE visible
16 Dec - 01:28:28 10° WSW 01:32:55 61° S 01:37:45 10° E visible
16 Dec - 03:32:03 10° W 03:36:36 51° NNW 03:42:29 10° NE visible
16 Dec - 05:37:32 10° WNW 05:40:27 14° NNW 05:43:50 10° N daylight
16 Dec - 20:46:20 10° NW 20:52:42 38° NNE 20:57:25 10° E daylight
16 Dec - 22:50:56 10° W 22:56:26 75° SSW 23:00:57 10° ESE visible
17 Dec - 00:55:50 10° WSW 01:00:21 58° S 01:04:58 10° E visible
17 Dec - 02:59:34 10° WSW 03:04:03 58° NNW 03:09:35 10° NE visible
17 Dec - 05:04:37 10° WNW 05:07:44 15° NNW 05:11:25 10° N visible
17 Dec - 20:13:19 10° NNW 20:20:02 35° NNE 20:24:56 10° E daylight
17 Dec - 22:17:54 10° WNW 22:23:52 83° SSW 22:28:30 10° ESE visible
18 Dec - 00:23:06 10° WSW 00:27:48 56° S 00:32:15 10° E visible
18 Dec - 02:27:05 10° WSW 02:31:31 67° NNW 02:36:43 10° ENE visible
18 Dec - 04:31:49 10° WNW 04:35:05 17° NNW 04:38:57 10° N visible
18 Dec - 19:40:17 10° NNW 19:47:19 32° NNE 19:52:25 10° E daylight
18 Dec - 21:44:45 10° WNW 21:51:16 89° NNE 21:56:04 10° ESE visible
18 Dec - 23:50:16 10° WSW 23:55:14 56° S 23:59:38 10° E visible
19 Dec - 01:54:31 10° WSW 01:59:00 76° NNW 02:03:56 10° ENE visible
19 Dec - 03:59:03 10° WNW 04:02:28 19° NNW 04:06:27 10° NNE visible
19 Dec - 19:07:14 10° NNW 19:14:33 29° NNE 19:19:52 10° E daylight
19 Dec - 21:11:33 10° WNW 21:18:39 82° NNE 21:23:40 10° ESE visible
19 Dec - 23:17:20 10° W 23:22:38 57° S 23:27:04 10° ESE visible
20 Dec - 01:21:55 10° WSW 01:26:29 86° NNW 01:31:11 10° ENE visible
20 Dec - 03:26:20 10° W 03:29:52 21° NNW 03:33:58 10° NNE night (unlit)
20 Dec - 18:34:11 10° NNW 18:41:43 27° NNE 18:47:16 10° E daylight
20 Dec - 20:38:16 10° WNW 20:45:59 75° NNE 20:51:16 10° ESE daylight
20 Dec - 22:44:17 10° W 22:50:02 59° S 22:54:34 10° ESE visible
21 Dec - 00:49:15 10° WSW 00:53:58 84° SSE 00:58:32 10° ENE visible
21 Dec - 02:53:39 10° W 02:57:19 25° NNW 03:01:28 10° NNE night (unlit)
21 Dec - 18:01:08 10° NNW 18:08:51 25° NNE 18:14:36 10° E daylight
21 Dec - 20:04:56 10° WNW 20:13:16 68° NNE 20:18:53 10° ESE daylight
21 Dec - 22:11:07 10° W 22:17:25 62° S 22:22:07 10° ESE visible
22 Dec - 00:16:28 10° WSW 00:21:27 77° SSE 00:25:55 10° ENE visible
22 Dec - 02:20:56 10° W 02:24:48 29° NNW 02:28:59 10° NNE night (unlit)
22 Dec - 17:28:07 10° NNW 17:35:56 23° NE 17:41:51 10° E daylight
22 Dec - 19:31:32 10° NW 19:40:31 63° NNE 19:46:28 10° ESE daylight
22 Dec - 21:37:50 10° W 21:44:45 66° S 21:49:42 10° ESE visible
22 Dec - 23:43:37 10° WSW 23:48:53 71° SSE 23:53:21 10° E visible
